Weather History for Mammoth, CA

Change the Weather History Date:

Thursday, August 22, 2013

  Actual Average Record
Temperature  
Mean Temperature 60 °F -  
Max Temperature 78 °F 74 °F 86 °F (2007)
Min Temperature 42 °F 58 °F 37 °F (2011)
Degree Days  
Heating Degree Days 5    
Growing Degree Days 10 (Base 50)    
Moisture  
Dew Point 33 °F    
Average Humidity 46    
Maximum Humidity 93    
Minimum Humidity 13    
Precipitation  
Precipitation 0.00 in - - ()
Sea Level Pressure  
Sea Level Pressure 30.24 in    
Wind  
Wind Speed 5 mph (SW)    
Max Wind Speed 25 mph    
Max Gust Speed 33 mph    
Visibility 10 miles    
Events      
Averages and records for this station are not official NWS values.
T = Trace of Precipitation, MM = Missing Value Source: NWS Daily Summary

Daily Weather History Graph

Daily Weather History Graph

Search for Another Location

Airport:

Trip Planner

Search our weather history database for the weather conditions in past years. The results will help you decide how hot, cold, wet, or windy it might be!

Date:

Astronomy

Aug. 22, 2013 Rise Set
Actual Time 6:17 AM PDT 7:38 PM PDT
Civil Twilight 5:50 AM PDT 8:05 PM PDT
Nautical Twilight 5:17 AM PDT 8:38 PM PDT
Astronomical Twilight 4:42 AM PDT 9:12 PM PDT
Moon 8:29 PM PDT (8/22) 8:08 AM PDT (8/22)
Length of Visible Light 14h 15m
Length of Day
13h 20m
Waning Gibbous, 96% of the Moon is Illuminated
Aug 22
Waning Gibbous
Aug 28
Last Quarter
Sep 5
New
Sep 12
First Quarter
Sep 19
Full

Hourly Weather History & Observations

Time (PDT) Temp. Windchill Dew Point Humidity Pressure Visibility Wind Dir Wind Speed Gust Speed Precip Events Conditions
12:15 AM 48.2 °F - 42.8 °F 82% 30.29 in 10.0 mi WNW 3.5 mph - N/A   Clear
12:35 AM 46.4 °F - 42.8 °F 87% 30.29 in 10.0 mi Calm Calm - N/A   Clear
12:55 AM 48.2 °F - 42.8 °F 82% 30.29 in 10.0 mi Calm Calm - N/A   Clear
1:15 AM 46.4 °F - 41.0 °F 81% 30.29 in 10.0 mi Calm Calm - N/A   Clear
1:35 AM 44.6 °F 43.1 °F 41.0 °F 87% 30.28 in 10.0 mi North 3.5 mph - N/A   Clear
1:55 AM 46.4 °F 45.2 °F 42.8 °F 87% 30.28 in 10.0 mi NNW 3.5 mph - N/A   Clear
2:15 AM 46.4 °F 45.2 °F 41.0 °F 81% 30.27 in 10.0 mi North 3.5 mph - N/A   Clear
2:35 AM 46.4 °F - 41.0 °F 81% 30.28 in 10.0 mi Calm Calm - N/A   Clear
2:55 AM 46.4 °F - 42.8 °F 87% 30.27 in 10.0 mi Calm Calm - N/A   Clear
3:15 AM 42.8 °F 40.1 °F 41.0 °F 93% 30.27 in 10.0 mi North 4.6 mph - N/A   Clear
3:35 AM 44.6 °F 43.1 °F 41.0 °F 87% 30.27 in 10.0 mi NE 3.5 mph - N/A   Clear
3:55 AM 42.8 °F 40.1 °F 41.0 °F 93% 30.26 in 10.0 mi North 4.6 mph - N/A   Clear
4:15 AM 42.8 °F - 41.0 °F 93% 30.27 in 10.0 mi Calm Calm - N/A   Clear
4:35 AM 42.8 °F - 41.0 °F 93% 30.26 in 10.0 mi Calm Calm - N/A   Clear
4:55 AM 44.6 °F 43.1 °F 41.0 °F 87% 30.26 in 10.0 mi NNW 3.5 mph - N/A   Clear
5:15 AM 42.8 °F - 41.0 °F 93% 30.26 in 10.0 mi Calm Calm - N/A   Clear
5:35 AM 42.8 °F 41.1 °F 39.2 °F 87% 30.25 in 10.0 mi North 3.5 mph - N/A   Clear
5:55 AM 44.6 °F 43.1 °F 41.0 °F 87% 30.26 in 10.0 mi East 3.5 mph - N/A   Clear
6:15 AM 44.6 °F 43.1 °F 41.0 °F 87% 30.26 in 10.0 mi East 3.5 mph - N/A   Clear
6:35 AM 44.6 °F - 42.8 °F 93% 30.27 in 10.0 mi Calm Calm - N/A   Clear
6:55 AM 42.8 °F - 41.0 °F 93% 30.27 in 10.0 mi Calm Calm - N/A   Clear
7:15 AM 44.6 °F - 42.8 °F 93% 30.27 in 10.0 mi Calm Calm - N/A   Clear
7:35 AM 48.2 °F - 44.6 °F 87% 30.27 in 10.0 mi ESE 3.5 mph - N/A   Clear
7:55 AM 50.0 °F - 46.4 °F 87% 30.27 in 10.0 mi WNW 3.5 mph - N/A   Clear
8:15 AM 53.6 °F - 46.4 °F 77% 30.27 in 10.0 mi Calm Calm - N/A   Clear
8:35 AM 55.4 °F - 48.2 °F 77% 30.27 in 10.0 mi ESE 4.6 mph - N/A   Clear
8:55 AM 59.0 °F - 46.4 °F 63% 30.26 in 10.0 mi ENE 4.6 mph - N/A   Clear
9:15 AM 62.6 °F - 44.6 °F 52% 30.25 in 10.0 mi Calm Calm - N/A   Clear
9:35 AM 66.2 °F - 42.8 °F 43% 30.25 in 10.0 mi NE 3.5 mph - N/A   Clear
9:55 AM 68.0 °F - 39.2 °F 35% 30.25 in 10.0 mi ENE 4.6 mph - N/A   Clear
10:15 AM 68.0 °F - 41.0 °F 37% 30.25 in 10.0 mi East 4.6 mph - N/A   Clear
10:35 AM 71.6 °F - 41.0 °F 33% 30.25 in 10.0 mi ESE 8.1 mph - N/A   Clear
10:55 AM 71.6 °F - 37.4 °F 29% 30.25 in 10.0 mi East 6.9 mph - N/A   Clear
11:15 AM 73.4 °F - 35.6 °F 25% 30.24 in 10.0 mi East 6.9 mph - N/A   Clear
11:35 AM 75.2 °F - 28.4 °F 18% 30.24 in 10.0 mi NW 3.5 mph - N/A   Clear
11:55 AM 75.2 °F - 26.6 °F 17% 30.24 in 10.0 mi WNW 5.8 mph - N/A   Scattered Clouds
12:15 PM 77.0 °F - 24.8 °F 14% 30.23 in 10.0 mi SSE 6.9 mph 19.6 mph N/A   Scattered Clouds
12:35 PM 77.0 °F - 24.8 °F 14% 30.23 in 10.0 mi WSW 17.3 mph 26.5 mph N/A   Scattered Clouds
12:55 PM 77.0 °F - 24.8 °F 14% 30.23 in 10.0 mi WSW 17.3 mph 24.2 mph N/A   Clear
1:15 PM 78.8 °F - 24.8 °F 14% 30.23 in 10.0 mi SW 13.8 mph 20.7 mph N/A   Clear
1:35 PM 78.8 °F - 24.8 °F 14% 30.23 in 10.0 mi SW 15.0 mph 27.6 mph N/A   Scattered Clouds
1:55 PM 78.8 °F - 24.8 °F 14% 30.22 in 10.0 mi South 9.2 mph 27.6 mph N/A   Clear
2:15 PM 77.0 °F - 23.0 °F 13% 30.22 in 10.0 mi SW 25.3 mph 32.2 mph N/A   Scattered Clouds
2:35 PM 78.8 °F - 23.0 °F 13% 30.23 in 10.0 mi SSW 15.0 mph 31.1 mph N/A   Scattered Clouds
2:55 PM 78.8 °F - 23.0 °F 13% 30.21 in 10.0 mi South 10.4 mph 25.3 mph N/A   Clear
3:15 PM 78.8 °F - 24.8 °F 14% 30.21 in 10.0 mi SSE 5.8 mph 21.9 mph N/A   Scattered Clouds
3:35 PM 78.8 °F - 24.8 °F 14% 30.21 in 10.0 mi South 13.8 mph 25.3 mph N/A   Clear
3:55 PM 77.0 °F - 23.0 °F 13% 30.20 in 10.0 mi SSW 17.3 mph 33.4 mph N/A   Clear
4:15 PM 77.0 °F - 24.8 °F 14% 30.20 in 10.0 mi West 8.1 mph 26.5 mph N/A   Clear
4:35 PM 77.0 °F - 23.0 °F 13% 30.20 in 10.0 mi WSW 15.0 mph 23.0 mph N/A   Clear
4:55 PM 77.0 °F - 23.0 °F 13% 30.19 in 10.0 mi SSW 6.9 mph - N/A   Clear
5:15 PM 77.0 °F - 23.0 °F 13% 30.19 in 10.0 mi SW 16.1 mph 25.3 mph N/A   Clear
5:35 PM 75.2 °F - 23.0 °F 14% 30.19 in 10.0 mi WSW 8.1 mph 26.5 mph N/A   Clear
5:55 PM 75.2 °F - 23.0 °F 14% 30.19 in 10.0 mi SSW 10.4 mph 25.3 mph N/A   Clear
6:15 PM 73.4 °F - 23.0 °F 15% 30.19 in 10.0 mi SW 15.0 mph 31.1 mph N/A   Clear
6:35 PM 73.4 °F - 23.0 °F 15% 30.19 in 10.0 mi SSW 10.4 mph 26.5 mph N/A   Clear
6:55 PM 73.4 °F - 23.0 °F 15% 30.19 in 10.0 mi WSW 12.7 mph 20.7 mph N/A   Clear
7:15 PM 71.6 °F - 23.0 °F 16% 30.19 in 10.0 mi West 8.1 mph 11.5 mph N/A   Clear
7:35 PM 69.8 °F - 21.2 °F 16% 30.19 in 10.0 mi SSW 10.4 mph 16.1 mph N/A   Clear
7:55 PM 66.2 °F - 23.0 °F 19% 30.20 in 10.0 mi SW 5.8 mph - N/A   Clear
8:15 PM 64.4 °F - 24.8 °F 22% 30.21 in 10.0 mi Calm Calm - N/A   Clear
8:35 PM 59.0 °F - 26.6 °F 29% 30.21 in 10.0 mi North 4.6 mph - N/A   Clear
8:55 PM 60.8 °F - 26.6 °F 27% 30.22 in 10.0 mi Calm Calm - N/A   Clear
9:15 PM 59.0 °F - 28.4 °F 31% 30.23 in 10.0 mi NNW 5.8 mph - N/A   Clear
9:35 PM 59.0 °F - 26.6 °F 29% 30.22 in 10.0 mi WNW 8.1 mph - N/A   Clear
9:55 PM 59.0 °F - 26.6 °F 29% 30.22 in 10.0 mi West 15.0 mph 24.2 mph N/A   Clear
10:15 PM 59.0 °F - 26.6 °F 29% 30.23 in 10.0 mi North 8.1 mph - N/A   Clear
10:35 PM 55.4 °F - 26.6 °F 33% 30.22 in 10.0 mi Calm Calm - N/A   Clear
10:55 PM 57.2 °F - 26.6 °F 31% 30.23 in 10.0 mi ESE 5.8 mph - N/A   Clear
11:15 PM 55.4 °F - 32.0 °F 41% 30.22 in 10.0 mi SE 3.5 mph - N/A   Clear
11:35 PM 55.4 °F - 32.0 °F 41% 30.22 in 10.0 mi Calm Calm - N/A   Clear
11:55 PM 51.8 °F - 32.0 °F 47% 30.22 in 10.0 mi Calm Calm - N/A   Clear